KINEIS-1A

Last updated on Wed Oct 22 2025 00:02:42 GMT+0000 (Coordinated Universal Time)

1 60084U 24114F 25294.60047525 .00002274 00000+0 30777-3 0 9992 2 60084 98.0049 314.7875 0003692 159.1745 200.9617 14.79970724 72090
UTC large
Height (km)
Speed (km/s)
/
Latitude / Longitude
Inclination (degrees)
Orbital Period (minutes)
Azimuth
Elevation
Range (km)
Doppler Factor

Next 0 passes for location: London (51.5072 / 0.1276)

Sorry there are no passes over London.